Weather History for Fairbanks, AK

Change the Weather History Date:

Monday, January 27, 2014

  Actual Average Record
Temperature  
Mean Temperature 18 °F -8 °F  
Max Temperature 23 °F 2 °F 39 °F (1945)
Min Temperature 12 °F -17 °F -58 °F (1933)
Degree Days  
Heating Degree Days 47 72  
Month to date heating degree days 1533 1974  
Since 1 July heating degree days 7217 8246  
Cooling Degree Days 0 0  
Month to date cooling degree days 0 0  
Year to date cooling degree days 0 0  
Moisture  
Dew Point 12 °F    
Average Humidity 82    
Maximum Humidity 88    
Minimum Humidity 67    
Precipitation  
Precipitation 0.00 in 0.02 in 0.42 in (1975)
Month to date precipitation 0.18 0.51  
Year to date precipitation 0.18 0.51  
Snow  
Snow 0.00 in 0.30 in 8.20 in (1975)
Month to date snowfall 2.5 9.0  
Since 1 July snowfall 35.8 46.9  
Snow Depth 16.00 in    
Sea Level Pressure  
Sea Level Pressure 29.89 in    
Wind  
Wind Speed 2 mph (NNE)    
Max Wind Speed 7 mph    
Max Gust Speed -    
Visibility 10 miles    
Events Fog    
T = Trace of Precipitation, MM = Missing Value Source: NWS Daily Summary

Daily Weather History Graph

Daily Weather History Graph

Search for Another Location

Airport:

Trip Planner

Search our weather history database for the weather conditions in past years. The results will help you decide how hot, cold, wet, or windy it might be!

Date:

Astronomy

Jan. 27, 2014 Rise Set
Actual Time 9:51 AM AKST 4:17 PM AKST
Civil Twilight 8:50 AM AKST 5:19 PM AKST
Nautical Twilight 7:48 AM AKST 6:21 PM AKST
Astronomical Twilight 6:50 AM AKST 7:19 PM AKST
Moon 7:07 AM AKST (1/27) 12:49 PM AKST (1/27)
Length of Visible Light 8h 29m
Length of Day
6h 25m
Waning Crescent, 13% of the Moon is Illuminated
Jan 27
Waning Crescent
Jan 30
New
Feb 6
First Quarter
Feb 14
Full
Feb 22
Last Quarter

Hourly Weather History & Observations

Time (AKST) Temp. Windchill Dew Point Humidity Pressure Visibility Wind Dir Wind Speed Gust Speed Precip Events Conditions
12:53 AM 21.0 °F 12.4 °F 18.0 °F 88% 29.99 in 10.0 mi NNE 6.9 mph - N/A   Mostly Cloudy
1:53 AM 21.0 °F - 17.1 °F 85% 29.98 in 10.0 mi Calm Calm - N/A   Mostly Cloudy
2:53 AM 19.9 °F - 16.0 °F 85% 29.98 in 10.0 mi Calm Calm - N/A   Scattered Clouds
3:53 AM 16.0 °F - 12.0 °F 84% 29.98 in 10.0 mi Calm Calm - N/A   Scattered Clouds
4:53 AM 15.1 °F - 10.9 °F 84% 29.97 in 10.0 mi Calm Calm - N/A Fog Patches of Fog
5:53 AM 15.1 °F - 10.9 °F 84% 29.96 in 10.0 mi Calm Calm - N/A   Scattered Clouds
6:53 AM 12.9 °F 5.2 °F 9.0 °F 84% 29.94 in 10.0 mi NNE 4.6 mph - N/A   Scattered Clouds
7:53 AM 15.1 °F - 10.9 °F 84% 29.93 in 10.0 mi Calm Calm - N/A   Scattered Clouds
8:53 AM 12.9 °F - 7.0 °F 77% 29.93 in 10.0 mi Calm Calm - N/A   Partly Cloudy
9:53 AM 12.0 °F - 8.1 °F 84% 29.92 in 10.0 mi Calm Calm - N/A   Partly Cloudy
10:53 AM 12.9 °F 6.9 °F 9.0 °F 84% 29.91 in 10.0 mi NW 3.5 mph - N/A   Partly Cloudy
11:53 AM 14.0 °F 8.2 °F 8.1 °F 77% 29.90 in 10.0 mi ENE 3.5 mph - N/A   Partly Cloudy
12:53 PM 19.0 °F - 14.0 °F 81% 29.88 in 10.0 mi Calm Calm - N/A   Partly Cloudy
1:53 PM 19.9 °F 14.9 °F 16.0 °F 85% 29.86 in 10.0 mi ENE 3.5 mph - N/A   Partly Cloudy
2:53 PM 21.0 °F 14.6 °F 17.1 °F 85% 29.85 in 10.0 mi NE 4.6 mph - N/A   Partly Cloudy
3:53 PM 17.1 °F 10.0 °F 14.0 °F 88% 29.84 in 10.0 mi NE 4.6 mph - N/A   Partly Cloudy
4:53 PM 19.0 °F 13.9 °F 14.0 °F 81% 29.83 in 10.0 mi NE 3.5 mph - N/A   Scattered Clouds
5:53 PM 17.1 °F 8.7 °F 12.0 °F 81% 29.82 in 10.0 mi NNE 5.8 mph - N/A   Scattered Clouds
6:53 PM 18.0 °F 11.1 °F 12.9 °F 81% 29.82 in 10.0 mi NE 4.6 mph - N/A   Scattered Clouds
7:53 PM 18.0 °F 12.7 °F 12.9 °F 81% 29.81 in 10.0 mi NNE 3.5 mph - N/A   Scattered Clouds
8:53 PM 17.1 °F - 12.9 °F 84% 29.82 in 10.0 mi Calm Calm - N/A   Scattered Clouds
9:53 PM 16.0 °F 10.4 °F 10.9 °F 81% 29.83 in 10.0 mi West 3.5 mph - N/A   Mostly Cloudy
10:53 PM 16.0 °F 10.4 °F 10.9 °F 81% 29.85 in 10.0 mi NNE 3.5 mph - N/A   Mostly Cloudy
11:53 PM 16.0 °F - 10.9 °F 81% 29.86 in 10.0 mi Calm Calm - N/A   Scattered Clouds